Weather observations for the past three days for
Northwest Arkansas Regional Airport
Imperial (Metric)
Date Time (cdt) Wind (mph) Vis. (mi.) Weather Sky Cond. Temperature (ºF) Relative Humidity Wind Chill (°F) Heat Index (°F) Pressure Precipitation (in)
Air Dwpt 6 hour altimeter (in) sea level (mb) 1 hr 3 hr 6 hr
Max. Min.
01 21:53 S 8 10.00 Fair CLR 84 63 49% 85 30.03 1014.8
01 20:53 S 5 10.00 Fair CLR 87.1 61 42% 87 30 1013.9
01 19:53 S 5 10.00 Fair CLR 91.9 60.1 34% 92 29.99 1013.6
01 18:53 S 6 10.00 Fair CLR 96.1 59 100 93.9 29% 96 29.99 1013.7
01 17:53 S 8 10.00 Mostly Cloudy SCT100 BKN110 99 59 27% 99 30 1013.9
01 16:53 Vrbl 6 10.00 Fair CLR 99 60.1 28% 99 30 1013.8
01 15:53 SE 10 10.00 Partly Cloudy SCT100 97 61 30% 98 30.02 1014.5
01 14:53 E 5 10.00 A Few Clouds FEW100 98.1 63 32% 100 30.04 1015.2
01 13:53 Vrbl 7 G 17 10.00 A Few Clouds FEW070 97 63 33% 99 30.06 1015.9
01 12:53 W 6 10.00 Partly Cloudy SCT070 SCT090 95 63 97 75 35% 96 30.09 1016.8
01 11:53 SW 7 10.00 Fair CLR 95 64.9 37% 98 30.11 1017.6
01 10:53 SW 9 10.00 Fair CLR 91.9 66.9 44% 95 30.12 1018.0
01 09:53 S 14 G 21 10.00 Fair CLR 88 66.9 50% 91 30.12 1018.1
01 08:53 S 8 10.00 Fair CLR 84 66.9 57% 87 30.12 1018.2
01 07:53 S 6 10.00 Fair CLR 79 66 65% 81 30.11 1017.9
01 06:53 S 5 10.00 Fair CLR 75.9 64.9 80.1 75.9 69% 78 30.09 1017.1
01 05:53 SW 5 10.00 Fair CLR 77 64.9 66% 79 30.08 1016.6
01 04:53 Calm 10.00 Mostly Cloudy BKN095 78.1 64 62% 80 30.07 1016.4
01 03:53 S 5 10.00 Fair CLR 79 64 60% 81 30.07 1016.2
01 02:53 S 6 10.00 Overcast OVC090 80.1 63 56% 81 30.06 1016.0
01 01:53 S 6 10.00 Mostly Cloudy BKN090 80.1 62.1 54% 81 30.07 1016.1
01 00:53 S 7 10.00 Fair CLR 80.1 61 96.1 80.1 52% 81 30.07 1016.1
31 23:53 S 5 10.00 Fair CLR 81 60.1 49% 82 30.05 1015.5
31 22:53 S 8 10.00 Fair CLR 82 57.9 44% 82 30.05 1015.7
31 21:53 S 7 10.00 Fair CLR 84 59 43% 84 30.04 1015.4
31 20:53 S 6 10.00 Fair CLR 86 59 40% 85 30.02 1014.8
31 19:53 SW 5 9.00 Fair CLR 90 59 35% 89 30 1014.2
31 18:53 S 6 10.00 Fair CLR 96.1 57 100.9 95 27% 95 30 1013.8
31 17:53 S 15 10.00 Fair CLR 99 55.9 24% 98 30 1013.8
31 16:53 SW 10 10.00 Fair CLR 99 57 25% 98 30.01 1014.1
31 15:53 S 9 10.00 A Few Clouds FEW090 99 59 27% 99 30.01 1014.3
31 14:53 S 10 G 18 10.00 A Few Clouds FEW090 99 59 27% 99 30.04 1015.1
31 13:53 Calm 10.00 A Few Clouds FEW085 99 59 27% 99 30.06 1015.9
31 12:53 Vrbl 7 10.00 Mostly Cloudy SCT075 BKN090 96.1 62.1 97 75 32% 97 30.08 1016.7
31 11:53 SW 10 10.00 Fair CLR 95 64 36% 97 30.1 1017.3
31 10:53 SW 8 G 17 10.00 Fair CLR 91.9 64 40% 94 30.1 1017.3
31 09:53 S 12 10.00 Fair CLR 88 66 48% 90 30.1 1017.2
31 08:53 S 8 10.00 Fair CLR 82.9 64.9 55% 85 30.1 1017.4
31 07:53 S 5 10.00 Fair CLR 78.1 64 62% 80 30.08 1016.8
31 06:53 S 6 10.00 Fair CLR 75.9 62.1 80.1 75 62% 78 30.06 1016.1
31 05:53 S 6 10.00 Fair CLR 75.9 62.1 62% 78 30.05 1015.6
31 04:53 S 7 10.00 Fair CLR 77 61 58% 79 30.05 1015.4
31 03:53 S 6 10.00 Fair CLR 77 60.1 56% 79 30.03 1014.9
31 02:53 S 5 10.00 Fair CLR 77 57.9 52% 79 30.02 1014.7
31 01:53 S 9 10.00 Fair CLR 79 57.9 49% 80 30.03 1014.9
31 00:53 S 6 10.00 Fair CLR 79 57.9 95 79 49% 80 30.04 1015.0
30 23:53 S 7 10.00 Fair CLR 80.1 60.1 51% 81 30.02 1014.7
30 22:53 S 9 10.00 Fair CLR 82.9 61 48% 83 30.02 1014.5
30 21:53 S 10 10.00 Fair CLR 84 60.1 44% 84 30 1014.2
30 20:53 S 8 10.00 Fair CLR 86 57.9 39% 85 29.98 1013.5
30 19:53 S 6 10.00 Fair CLR 88 57 35% 87 29.97 1013.1
30 18:53 S 8 10.00 Fair CLR 95 55.9 100 95 27% 93 29.97 1013.2
30 17:53 S 13 10.00 Fair CLR 97 57 26% 96 29.98 1013.2
30 16:53 S 15 G 21 10.00 Fair CLR 98.1 57 25% 97 29.98 1013.3
30 15:53 S 13 G 20 10.00 Fair CLR 99 57 25% 98 29.99 1013.5
30 14:53 Calm 10.00 Fair CLR 97 59 28% 97 30.01 1014.2
30 13:53 S 9 G 21 10.00 Fair CLR 96.1 60.1 30% 96 30.03 1014.9
30 12:53 SW 14 G 22 10.00 Fair CLR 96.1 59 96.1 71.1 29% 96 30.04 1015.5
30 11:53 S 15 G 23 10.00 Fair CLR 93.9 57.9 30% 93 30.06 1016.1
30 10:53 S 15 10.00 Fair CLR 91 59 34% 90 30.07 1016.5
30 09:53 S 13 G 21 10.00 Fair CLR 86 61 43% 86 30.07 1016.4
30 08:53 S 13 10.00 Fair CLR 80.1 61 52% 81 30.07 1016.7
30 07:53 S 8 10.00 Fair CLR 75 60.1 60% 77 30.07 1016.6
30 06:53 S 5 10.00 Fair CLR 71.1 57.9 75.9 70 63% 30.06 1015.9
30 05:53 S 3 10.00 Fair CLR 72 57 59% 30.05 1015.7
30 04:53 SE 5 10.00 Fair CLR 72 57 59% 30.05 1015.7
30 03:53 S 5 10.00 Fair CLR 73 57 57% 30.04 1015.5
30 02:53 S 6 10.00 Fair CLR 73.9 57 56% 30.03 1015.1
30 01:53 S 8 10.00 Fair CLR 73.9 57 56% 30.05 1015.6
30 00:53 S 5 10.00 Fair CLR 75 57 93.9 75 54% 78 30.05 1015.8
29 23:53 S 6 10.00 Fair CLR 77 57.9 52% 79 30.06 1015.9
29 22:53 S 8 10.00 Fair CLR 80.1 57.9 47% 81 30.05 1015.6
Date Time (cdt) Wind (mph) Vis. (mi.) Weather Sky Cond. Air Dwpt Max. Min. Relative Humidity Wind Chill (°F) Heat Index (°F) altimeter (in) sea level (mb) 1 hr 3 hr 6 hr
6 hour
Temperature (ºF) Pressure Precipitation (in)